Theta_e
320 321 326 326 328 327 328 330 331 334 328 327 331 331 327 324 324 322 324 319 317 320 318 320 320 317 320 323 323 328 332 331 333 331 335 336 325 326 329 326 327 325 327 330 330 333 333 335 336 336 337 337 338 338 339 338 338 338 336 337 335 335 336 337 338 338 338 339 339 339 339 338 338 338 337 337 336 337 336 336 337 336 337 337 338 338 338 338 337 337 336 334 333 334 335 335 335
322 325 327 327 327 324 330 334 336 337 331 328 328 332 329 322 320 325 331 324 320 316 315 320 321 320 322 323 319 323 327 325 328 331 331 324 326 330 327 327 327 325 326 329 330 332 333 334 335 335 336 337 337 337 338 338 338 338 337 337 336 337 338 338 338 338 339 338 339 339 338 338 337 337 336 336 336 336 335 336 336 336 337 337 337 337 337 337 336 336 335 333 332 332 333 334 333
325 328 328 328 325 326 335 335 335 333 325 324 326 331 325 322 326 330 331 324 319 314 316 319 317 320 322 322 320 321 327 328 327 332 330 322 331 332 325 329 328 327 326 328 332 331 331 332 334 336 336 337 336 337 337 337 338 338 338 337 337 338 338 339 338 338 338 338 338 338 338 338 337 336 335 335 334 334 334 334 335 335 336 337 337 337 336 335 335 335 334 332 331 331 332 332 332
326 328 326 328 327 333 343 335 339 334 322 327 326 330 332 331 334 330 328 322 317 314 317 318 317 318 318 324 322 320 325 327 324 329 335 325 329 330 326 329 329 329 327 330 332 330 331 331 335 335 336 336 335 337 336 337 337 337 338 337 337 338 338 338 338 338 338 337 337 337 337 337 336 335 334 333 332 332 332 333 334 334 334 335 335 335 335 334 334 334 332 331 331 331 331 331 330
326 327 322 327 329 332 337 328 335 331 322 331 328 334 343 340 335 329 327 323 319 318 318 317 318 315 314 322 320 322 327 324 318 318 325 322 325 328 328 330 330 330 329 331 332 331 330 331 334 335 335 336 335 336 336 337 337 337 337 337 338 337 337 337 337 338 337 336 336 335 335 335 335 333 333 332 331 330 330 331 331 331 332 332 332 334 332 331 333 332 331 330 330 329 328 328 327
325 325 321 323 322 324 330 325 330 330 325 330 332 337 339 334 331 326 325 325 321 319 319 316 317 314 315 319 317 320 323 320 318 318 318 319 324 327 329 329 330 331 330 332 332 332 330 331 333 334 335 335 335 336 336 336 337 337 337 337 338 337 337 337 336 336 336 335 334 334 334 333 333 331 331 329 329 329 330 330 329 329 330 331 331 331 330 329 330 329 327 326 325 324 322 321 320
322 324 325 324 323 325 334 331 332 336 329 325 330 333 327 326 324 322 323 321 320 317 315 315 316 314 316 317 316 316 315 317 319 320 319 318 323 327 330 329 330 331 331 332 332 332 331 331 332 333 333 333 335 335 335 335 336 336 336 337 336 336 336 336 335 335 334 333 333 333 332 332 331 329 328 326 327 328 328 328 328 329 329 329 329 329 327 326 325 323 321 319 315 313 311 309 308
322 327 328 331 332 327 332 333 331 334 330 323 325 329 325 323 321 319 321 319 318 318 314 315 316 315 317 314 318 318 311 316 318 318 319 317 321 326 329 329 330 331 332 332 332 332 331 331 332 332 332 333 334 333 334 333 335 335 334 335 334 335 334 334 334 333 332 332 332 331 330 330 328 326 326 324 325 326 325 324 325 327 327 326 326 326 324 322 319 316 311 308 305 303 301 300 300
320 323 325 330 329 325 330 330 326 326 329 325 322 326 324 320 320 317 320 321 318 318 316 317 317 317 318 314 320 320 311 316 317 318 318 317 320 324 329 328 329 329 330 331 330 331 329 330 329 330 331 332 332 331 332 331 332 333 332 333 332 332 332 332 331 330 330 330 329 328 328 327 326 325 323 324 324 323 320 319 320 322 323 323 323 322 320 316 311 306 303 300 299 299 298 298 298
319 321 324 327 324 323 327 325 324 325 328 326 321 323 321 318 319 318 320 320 318 318 316 315 315 316 317 316 320 317 313 316 316 318 318 317 319 323 328 328 328 328 328 328 327 327 326 327 326 327 328 329 331 330 330 330 331 331 331 331 331 330 330 330 329 329 328 328 328 326 326 325 324 323 323 323 320 316 312 311 311 314 316 317 317 315 312 307 302 300 299 298 298 298 298 298 298
326 328 327 324 323 322 322 323 326 328 328 324 323 322 318 316 316 318 319 317 318 317 315 313 315 318 315 317 324 316 312 315 315 318 317 316 318 322 327 328 328 327 327 327 326 326 325 324 325 325 326 327 329 330 330 330 330 330 330 330 330 330 329 329 328 327 327 327 326 325 325 324 323 322 322 318 313 308 305 304 303 305 307 309 308 306 303 300 299 299 298 298 298 298 298 298 298
326 334 337 329 328 326 324 329 328 330 330 325 329 325 315 316 317 319 321 319 320 318 318 316 315 318 316 322 327 314 310 314 315 317 317 317 318 322 326 328 328 328 327 327 327 326 325 324 324 325 325 326 328 329 330 330 329 329 330 329 329 329 328 328 327 326 325 325 325 324 323 322 322 320 316 311 306 304 302 300 300 300 300 301 300 299 299 298 298 297 297 297 297 297 297 297 297
332 336 338 328 329 329 324 331 332 330 332 331 330 320 311 317 321 321 322 320 318 319 320 316 315 315 317 324 324 317 314 314 315 317 317 316 318 322 325 327 328 327 328 327 326 325 324 324 324 325 325 325 327 327 328 329 328 328 329 328 328 328 327 327 325 325 324 324 324 322 321 322 320 314 309 306 305 303 301 300 298 298 298 298 297 298 297 297 297 297 297 297 297 297 297 297 297
333 336 334 323 325 330 326 329 332 327 328 333 329 317 313 317 321 320 319 319 320 320 316 312 313 315 319 320 324 330 319 311 315 316 316 317 319 322 325 327 327 327 327 326 326 325 324 323 323 324 324 325 325 325 326 327 327 328 327 327 327 327 326 326 324 324 323 323 322 319 320 320 315 308 306 305 304 301 300 299 298 298 297 297 297 297 297 297 297 297 297 297 297 297 297 297 297
324 335 336 327 327 328 327 325 326 324 322 327 323 315 316 317 317 318 318 318 321 317 311 309 312 316 319 318 325 329 313 309 315 315 316 318 320 322 323 325 326 326 326 326 325 325 324 323 322 322 323 324 324 324 325 324 325 325 325 326 326 326 325 325 324 323 323 322 320 317 316 315 309 305 304 303 301 299 298 298 298 297 297 297 297 297 297 297 298 298 298 298 298 297 298 297 297
325 338 334 328 330 325 326 325 321 321 325 330 322 313 318 319 314 315 316 316 317 314 311 313 312 313 319 320 320 315 309 311 314 315 316 318 319 320 321 322 324 325 325 325 325 325 324 323 322 322 321 322 323 323 322 321 322 323 324 324 324 325 324 323 323 322 321 318 315 312 311 307 304 303 302 300 299 298 298 298 297 297 297 297 297 297 297 297 298 298 298 298 298 298 298 298 298
325 334 330 326 329 325 325 325 321 322 331 337 325 315 317 319 314 312 310 311 314 315 315 317 312 312 317 318 313 309 310 312 313 315 316 316 317 317 319 321 321 323 324 325 325 325 324 323 323 322 321 321 321 321 320 320 321 323 323 324 323 323 322 322 322 320 317 313 309 308 305 303 301 300 299 299 298 298 298 298 297 297 297 297 297 297 297 298 298 298 298 298 298 298 298 298 298
325 331 326 323 327 327 327 328 324 320 324 328 321 316 315 317 318 313 311 313 315 314 315 316 313 311 312 311 308 309 311 312 313 314 314 314 314 315 316 318 320 321 323 324 324 325 324 323 322 322 321 320 319 320 319 319 320 322 322 322 322 321 320 320 319 316 311 307 306 304 302 301 299 298 298 298 298 298 298 297 297 297 297 298 298 298 298 298 298 298 298 298 298 298 298 298 297
329 331 323 325 329 326 325 328 326 319 319 322 320 317 314 315 316 312 314 318 317 315 315 315 315 315 312 309 307 309 310 311 313 313 312 311 311 313 314 315 317 318 321 323 324 324 323 323 322 321 320 320 319 319 318 317 319 320 320 319 319 319 318 316 314 310 306 304 303 301 301 299 298 298 298 297 297 297 297 297 297 298 298 298 298 298 298 298 298 298 298 298 298 298 297 297 297
329 328 325 332 330 324 323 325 324 320 317 318 319 317 314 315 314 312 315 317 317 317 315 315 317 317 316 314 308 307 309 309 311 311 311 310 311 312 313 314 315 317 320 322 322 323 323 322 321 320 320 319 318 318 317 316 316 317 317 316 315 314 312 310 307 305 303 302 301 300 299 298 297 297 297 297 297 297 297 297 297 298 298 298 298 298 298 298 298 298 298 298 297 297 296 296 296
325 323 328 336 326 322 324 323 321 319 315 315 318 317 316 315 312 312 314 316 317 316 315 316 317 317 317 319 312 304 306 306 307 309 309 309 310 311 313 314 316 318 319 319 320 321 322 321 320 319 319 318 317 317 316 314 314 315 314 313 310 308 306 305 304 302 302 301 300 299 298 297 297 297 297 297 297 297 297 297 297 297 297 297 297 297 297 298 298 298 297 297 297 296 296 296 295
322 321 325 330 322 319 322 323 322 318 315 316 317 316 316 313 312 314 314 315 317 316 317 318 317 318 318 315 313 306 307 308 305 306 308 308 309 310 311 313 314 315 315 317 319 320 321 320 320 319 318 317 316 316 315 314 313 312 311 309 307 304 303 302 301 301 300 300 299 298 297 297 296 297 297 297 297 297 297 297 297 296 296 297 297 297 297 297 297 298 297 297 297 296 296 295 295
320 322 322 325 322 319 320 322 322 318 316 317 317 316 315 312 314 316 315 315 316 315 316 318 317 313 311 310 315 318 319 316 308 304 307 308 308 309 310 311 313 313 314 316 317 318 319 319 319 318 317 317 316 315 314 314 312 310 309 307 304 302 301 300 300 299 299 299 298 297 297 296 297 297 297 297 297 296 296 296 296 296 296 296 296 296 297 297 297 297 297 297 296 296 295 295 295
319 321 322 323 320 320 320 318 320 319 316 317 316 315 315 314 315 313 313 315 314 314 313 315 313 306 306 311 318 323 321 316 309 305 307 308 309 310 311 311 311 311 312 313 314 316 317 318 318 317 317 316 315 315 314 314 312 310 307 305 303 301 300 299 298 298 298 298 297 296 296 297 297 297 297 297 296 296 296 296 296 296 295 296 296 296 297 297 297 297 296 296 296 295 295 295 295
320 321 322 322 321 321 320 316 318 319 318 315 314 316 317 315 314 312 313 313 313 313 312 312 311 309 310 313 315 316 317 314 307 305 306 307 309 309 309 309 308 308 310 311 312 314 315 316 317 317 317 316 315 315 314 313 312 310 307 304 302 300 299 299 298 298 297 297 296 296 296 296 297 297 297 297 296 296 295 296 295 295 295 296 296 296 296 296 296 296 295 295 295 295 295 294 294
323 321 321 322 320 319 317 316 317 318 318 314 313 317 316 313 313 313 313 313 312 312 313 312 311 313 314 311 311 311 314 315 309 305 305 306 307 307 307 308 307 308 309 309 310 312 313 313 315 316 316 316 315 314 314 313 312 310 307 304 301 300 299 298 298 297 297 296 296 296 296 296 297 297 297 297 296 296 295 295 295 295 295 295 296 295 295 295 295 295 295 295 295 294 294 294 294
320 320 319 319 317 316 313 314 315 315 316 315 314 316 314 312 312 313 314 315 313 313 315 314 312 315 314 311 310 309 310 312 308 306 306 306 305 305 306 306 306 308 308 307 308 310 311 312 314 315 315 315 314 314 313 313 312 311 307 304 301 300 299 298 297 297 296 296 296 296 296 296 297 297 297 297 296 296 295 295 295 295 295 295 295 295 295 294 295 295 295 294 294 294 294 294 294
315 315 316 316 315 314 312 313 314 313 313 313 313 313 314 312 311 313 314 314 313 314 316 314 313 314 313 311 309 308 308 306 304 305 307 306 305 306 306 306 307 307 307 307 308 307 308 310 311 313 314 314 314 314 313 312 312 311 308 304 301 300 298 298 297 296 296 296 296 296 296 297 297 297 297 297 296 296 295 295 295 295 295 295 294 294 294 294 294 294 294 294 294 294 294 294 294
313 313 314 315 314 313 312 313 314 312 313 313 311 312 315 314 314 315 312 312 312 313 314 313 312 312 312 311 310 309 307 303 302 303 305 306 307 307 306 308 309 307 308 308 307 306 307 308 309 310 312 313 313 313 313 312 311 311 309 305 302 300 298 297 297 296 296 296 296 296 296 296 296 297 297 296 296 295 295 295 294 295 295 294 294 293 293 293 294 294 294 294 294 294 294 294 294
313 313 313 313 314 314 312 313 313 311 313 315 312 311 316 316 316 315 312 311 312 313 314 313 312 312 312 312 311 310 307 305 304 302 303 306 307 307 307 309 309 308 308 307 306 307 307 307 307 308 309 311 312 312 312 312 311 310 309 306 303 300 298 297 297 297 296 296 295 295 295 296 296 296 296 296 295 295 295 294 294 294 294 293 293 293 293 293 293 293 294 294 294 294 294 294 294
315 312 314 315 314 315 313 313 311 310 313 313 312 312 313 313 314 313 311 312 313 313 314 313 312 312 312 312 312 312 310 306 304 304 304 305 306 306 307 308 308 308 307 306 307 308 307 305 306 306 307 309 310 311 311 311 311 310 309 307 304 301 298 297 297 297 296 296 295 295 295 295 296 296 296 296 295 295 295 294 294 294 293 293 292 292 292 292 293 293 293 294 294 294 294 294 294
322 313 316 319 315 315 314 312 312 312 312 310 311 314 313 311 313 312 311 312 313 313 314 314 314 312 311 311 311 311 311 307 304 303 305 305 305 306 306 307 307 307 307 307 307 307 306 305 305 305 306 306 308 309 310 310 309 308 308 307 304 302 299 297 297 297 296 296 295 295 295 295 296 296 297 297 296 295 295 294 294 293 293 292 292 292 292 292 293 293 293 293 293 293 293 294 294
325 315 316 319 316 314 313 314 315 313 312 310 311 313 312 313 314 313 313 312 312 313 314 313 313 311 310 310 309 310 310 310 308 305 305 305 306 306 306 306 307 307 307 307 307 306 306 305 305 305 305 306 306 307 308 308 307 307 306 305 304 302 299 297 297 296 296 295 295 295 295 296 296 297 297 297 296 295 294 294 293 292 292 291 291 291 292 292 292 293 293 293 293 293 294 294 294
321 316 316 317 316 313 313 315 315 311 311 312 312 310 310 311 312 312 312 312 312 311 311 310 310 310 310 309 309 309 309 309 310 308 307 306 307 307 307 306 306 307 307 306 306 306 306 305 304 304 304 305 305 305 306 306 305 305 304 303 302 301 299 297 296 296 296 295 295 295 295 296 296 296 297 297 296 295 294 294 293 292 291 291 291 291 291 291 291 292 293 293 293 293 293 293 293
317 317 315 315 315 313 312 313 313 313 311 311 312 310 310 309 309 310 310 310 311 310 310 309 309 309 309 309 308 309 308 308 309 309 308 308 308 308 308 307 307 307 307 306 306 306 306 305 304 304 304 303 303 304 304 304 303 302 302 301 300 299 298 297 296 296 296 295 295 295 295 295 296 296 296 296 295 295 294 293 293 291 291 291 290 290 291 291 291 291 292 293 293 292 292 293 292
314 314 313 313 312 312 312 311 311 312 310 309 310 309 309 309 309 309 309 309 309 309 309 309 309 309 308 309 309 309 309 309 309 308 309 309 309 308 308 308 308 307 307 306 305 305 305 305 304 304 303 302 302 302 302 302 301 300 299 298 298 297 297 296 296 296 296 296 296 296 296 295 296 296 296 296 294 294 295 293 292 291 291 290 290 290 291 291 292 291 291 292 292 292 291 292 292
312 311 312 312 311 310 310 310 310 310 309 309 311 310 310 310 309 309 309 309 309 309 309 309 309 309 309 309 310 310 310 310 310 308 308 309 309 309 309 309 307 306 305 305 305 305 305 305 304 303 302 301 301 301 301 301 300 300 298 298 298 298 297 296 296 296 297 297 296 296 295 295 295 295 295 295 294 295 295 294 292 291 291 290 290 291 291 291 291 291 291 291 292 292 291 291 292
311 312 312 311 311 310 310 310 310 309 308 310 311 310 310 309 310 310 310 309 309 309 309 310 310 310 310 310 310 310 310 311 311 310 309 308 308 308 308 308 306 305 305 305 305 305 305 304 304 303 302 301 301 301 301 301 301 301 300 299 299 298 297 297 297 297 297 296 296 296 295 295 295 295 295 295 294 295 296 295 293 291 291 290 290 290 290 290 290 291 291 291 291 291 291 291 292
312 312 312 312 311 311 311 311 311 310 310 313 313 311 309 310 310 309 310 310 309 310 310 310 311 310 311 310 310 310 311 311 311 311 310 307 307 308 307 307 306 305 305 305 305 304 304 304 303 303 302 301 301 301 301 301 301 300 300 299 299 298 297 297 297 297 296 296 295 295 295 295 294 294 294 294 295 295 296 295 293 291 291 290 290 290 290 290 290 290 291 292 292 291 291 291 292
312 312 312 313 311 311 312 313 315 312 310 312 312 309 309 310 310 309 309 309 309 310 310 310 311 310 311 311 311 311 310 311 310 311 311 308 307 306 305 306 306 305 305 304 304 303 303 304 303 302 302 301 301 300 300 300 300 299 299 299 298 298 297 297 297 296 296 295 295 295 295 295 294 294 294 294 294 295 296 296 293 291 291 290 290 290 290 290 290 291 290 292 293 292 291 290 290
312 314 313 312 312 311 311 312 314 312 312 314 311 309 312 312 313 314 312 310 310 310 310 310 310 309 310 311 311 311 310 310 311 310 311 310 308 305 304 305 305 304 304 304 304 304 304 304 303 303 302 301 301 300 300 299 299 298 298 298 297 297 297 296 296 296 295 295 295 296 296 296 296 295 295 294 294 294 295 296 294 291 291 290 290 290 290 290 290 291 291 292 293 293 292 290 289
312 316 314 312 311 311 312 312 312 313 317 316 311 312 314 314 316 319 320 318 316 314 313 312 310 309 309 310 310 310 310 311 313 312 311 311 309 306 304 304 304 304 305 306 305 305 304 304 303 302 301 301 300 300 299 299 299 298 297 297 296 296 295 295 296 295 295 296 297 297 297 297 297 297 296 295 295 294 295 295 294 291 290 290 290 289 290 290 290 291 291 292 292 293 293 292 290
313 318 318 313 311 312 313 312 312 316 319 313 312 316 315 314 315 318 320 319 318 315 314 312 311 310 310 310 310 310 311 311 312 312 311 310 309 308 306 304 304 305 306 306 305 304 304 303 302 302 301 300 300 299 299 299 298 298 298 297 297 296 296 296 296 296 297 298 297 297 297 297 297 297 297 296 295 294 294 294 294 291 290 290 289 289 289 290 291 291 291 291 292 292 293 293 291
316 318 319 318 315 314 313 312 312 317 317 312 314 315 315 314 314 315 317 316 317 314 312 311 311 311 309 310 310 310 311 311 311 312 311 310 309 308 305 303 304 305 304 304 303 303 302 302 302 301 301 300 299 299 299 298 298 298 297 297 297 297 297 296 296 296 297 297 296 296 296 297 297 297 296 296 295 294 294 294 294 291 290 290 289 289 289 290 290 290 290 290 290 291 293 293 292
317 315 315 316 315 314 313 313 315 316 315 315 315 313 316 318 314 315 315 314 317 316 314 314 312 313 312 311 311 310 310 310 312 312 311 312 309 304 301 301 302 302 302 302 301 302 301 301 301 301 300 299 299 299 298 298 298 298 297 297 297 297 297 297 296 296 296 295 295 295 295 295 295 295 296 296 295 294 294 293 293 291 290 290 289 289 289 289 289 290 290 289 290 290 291 292 292
315 313 314 318 320 318 314 314 317 318 317 317 317 314 316 318 316 317 314 314 319 317 317 317 313 314 315 313 312 311 310 310 311 310 309 309 305 300 299 299 299 300 301 301 301 301 301 301 301 300 300 299 298 298 298 298 298 298 297 297 297 297 297 296 296 295 295 295 295 294 294 294 294 294 295 295 295 294 293 292 292 291 290 289 289 289 288 289 289 289 289 290 290 290 290 291 291
311 314 317 321 322 318 317 319 317 319 318 316 318 316 314 317 319 322 318 317 319 316 317 320 317 315 314 312 312 311 311 311 312 310 308 306 301 298 298 298 298 298 299 300 300 300 300 300 300 299 299 298 298 298 298 298 297 297 297 297 297 297 297 296 296 295 295 294 294 294 294 294 294 294 294 294 294 293 293 292 291 291 290 289 289 289 288 289 289 289 289 289 289 290 290 290 290
312 319 317 316 320 319 322 323 317 318 321 318 319 316 313 317 318 318 318 317 315 312 313 316 316 316 314 312 313 314 314 314 315 313 309 308 305 301 298 297 296 297 298 299 299 299 299 299 299 298 298 298 298 297 297 297 297 297 297 297 297 297 297 296 296 295 295 294 294 294 293 293 293 293 293 293 293 293 292 292 291 291 290 289 289 289 288 289 289 288 288 289 289 289 290 290 289
312 316 314 314 320 320 322 323 318 319 322 318 316 314 312 315 314 313 314 313 313 313 312 312 313 314 314 315 316 318 318 316 315 314 312 313 311 306 300 296 295 295 297 297 298 298 299 298 298 298 298 297 297 297 297 297 297 297 297 297 297 297 297 297 296 296 295 295 294 294 293 293 293 293 293 293 293 293 293 293 292 291 290 289 289 289 289 289 288 288 288 288 288 289 289 289 289
312 314 316 318 319 318 321 324 319 318 322 316 311 313 315 315 316 317 315 312 313 313 313 314 314 314 314 316 318 320 319 316 313 315 317 316 313 310 302 295 293 295 296 297 297 298 298 298 297 297 297 297 297 297 297 297 297 297 297 297 297 297 297 297 296 296 295 295 295 294 294 294 293 294 294 294 294 294 294 293 293 292 291 290 289 289 289 288 288 288 288 288 288 288 289 288 288
312 315 319 319 321 321 321 323 320 319 322 316 308 313 320 319 318 318 314 313 314 313 313 312 315 318 316 316 318 318 317 315 315 317 317 314 311 306 299 294 294 296 296 296 297 298 298 298 297 297 297 297 297 297 297 297 297 297 297 297 297 297 297 296 296 296 296 296 295 295 295 294 295 295 295 295 294 294 293 293 292 292 291 290 289 289 289 288 288 287 287 288 288 288 288 288 287
313 315 317 316 320 322 318 319 320 318 319 315 311 316 322 318 314 313 312 313 313 312 312 310 314 319 317 317 319 317 316 317 318 316 313 312 308 299 293 293 295 296 296 296 297 298 298 298 298 297 297 297 297 297 297 297 297 297 297 297 296 296 296 296 296 295 295 296 296 295 295 295 296 296 295 294 293 293 293 292 292 291 290 290 289 289 288 288 288 287 287 287 287 287 287 287 287
315 313 315 315 318 320 317 318 318 316 317 317 315 318 318 314 316 317 315 316 314 312 311 310 312 316 315 317 320 317 316 314 313 314 313 311 309 300 293 293 295 295 296 297 297 298 298 298 298 298 297 297 297 297 297 297 296 296 296 296 296 296 296 296 296 295 295 295 295 295 295 295 295 295 294 294 293 293 292 292 291 291 290 289 289 288 288 288 287 287 287 287 287 287 287 287 286
315 316 316 313 316 319 316 316 318 318 318 319 317 318 317 315 320 324 320 317 316 315 314 312 314 315 313 315 318 315 315 313 311 313 311 307 306 300 294 293 294 295 295 296 297 297 297 298 298 298 298 297 297 297 297 296 296 296 296 296 296 296 296 296 296 295 295 295 295 295 295 294 294 294 294 294 293 293 292 292 291 291 290 289 289 288 288 288 287 287 286 286 286 287 287 286 286
312 316 316 313 317 319 315 316 319 318 318 319 317 317 316 315 317 318 316 314 315 316 316 316 315 313 311 312 313 312 312 309 306 305 303 300 300 297 294 294 294 294 294 294 295 295 295 296 297 297 297 297 297 297 296 296 296 296 296 296 296 296 296 296 296 295 295 295 295 294 294 294 294 294 294 294 293 292 292 292 291 291 290 289 288 288 288 287 287 287 286 286 286 286 286 286 286
309 311 313 312 315 316 315 318 320 318 318 319 318 317 317 317 315 314 314 314 313 314 315 316 315 313 311 310 309 307 305 302 300 299 298 298 298 296 295 295 295 295 295 295 294 294 294 294 295 295 296 296 296 296 295 295 295 295 295 295 295 296 295 295 295 295 295 295 294 294 294 294 294 294 294 293 293 293 292 292 291 290 290 289 288 288 287 287 287 286 286 286 286 286 286 286 286
313 312 313 312 313 315 315 316 316 316 316 317 319 318 318 318 316 314 314 314 313 312 312 314 313 310 307 305 303 301 299 298 298 297 297 297 296 296 296 296 296 296 296 295 295 295 295 294 294 294 294 294 295 295 295 294 294 294 295 295 295 295 295 295 295 294 295 294 294 294 294 294 293 293 293 292 292 292 292 292 291 291 290 289 289 288 287 287 286 286 286 285 285 286 285 286 285
317 316 316 313 313 316 316 316 316 315 315 316 318 317 319 322 320 315 313 314 314 310 308 308 307 303 301 300 298 298 297 297 296 296 296 296 296 295 295 296 296 296 296 296 296 295 295 295 295 294 293 293 293 294 294 294 294 294 294 294 294 294 294 294 294 294 294 294 294 294 294 294 293 293 293 292 292 292 292 292 291 290 290 289 289 289 288 287 286 286 285 285 285 285 285 285 285
Wind_Speed
1 1 1 1 3 1 2 4 2 3 2 1 3 1 4 4 2 3 5 3 1 2 3 1 4 5 2 3 7 7 5 7 6 5 3 6 2 10 28 21 10 20 32 29 26 26 23 22 19 18 17 17 17 17 17 17 18 18 18 16 16 15 14 14 13 12 12 12 11 11 10 10 10 10 9 8 8 8 8 7 7 7 6 6 6 6 5 5 5 4 5 4 3 3 2 2 2
0 1 2 1 3 1 1 3 2 3 4 2 3 3 4 3 1 5 8 5 5 3 3 2 2 1 1 1 3 2 4 6 5 4 4 5 2 13 30 23 12 21 32 29 27 26 24 23 19 18 17 17 17 16 16 16 17 17 17 17 16 16 15 15 14 13 12 12 12 12 11 11 11 10 10 8 8 7 8 7 7 7 7 7 6 7 7 6 5 4 4 3 1 1 1 1 1
0 1 2 0 2 3 1 4 2 1 2 3 5 5 2 1 5 8 9 8 7 3 3 1 1 2 1 2 2 2 5 4 3 3 3 5 3 13 31 25 15 22 31 30 27 27 25 23 21 19 17 16 17 17 17 16 17 17 17 17 17 16 16 15 15 14 13 13 12 12 12 11 10 9 8 7 7 7 8 8 8 8 7 8 7 8 8 6 6 5 5 3 2 3 2 3 3
1 2 3 1 1 4 4 3 2 4 2 3 4 5 3 5 8 8 8 7 6 2 1 1 0 2 4 4 3 1 6 5 4 6 2 6 6 14 31 25 18 25 31 30 28 27 25 24 22 20 17 17 17 17 17 16 17 17 17 17 16 16 16 15 15 15 13 13 12 11 11 10 9 8 7 7 7 8 8 8 8 8 8 8 7 7 6 5 7 6 5 4 4 5 4 4 5
1 3 4 1 2 1 3 2 2 4 4 4 2 6 6 7 8 7 6 6 5 4 3 3 1 2 2 5 3 1 6 4 4 9 4 4 7 16 29 25 21 27 31 30 29 28 26 25 24 22 19 17 18 17 17 17 17 17 17 16 16 15 15 15 14 14 13 12 12 11 10 10 9 9 7 7 8 8 8 9 9 8 8 7 6 9 6 4 7 7 6 6 6 6 6 6 7
1 2 5 4 2 1 3 1 2 3 5 6 3 7 7 7 7 6 7 7 4 6 4 3 1 1 1 4 3 4 5 0 1 9 6 2 7 18 28 25 24 29 31 31 29 28 27 26 25 24 20 18 18 18 18 19 18 18 17 16 16 16 15 15 15 14 13 13 12 12 12 10 10 10 9 9 9 8 8 9 9 8 7 7 7 10 6 5 7 6 6 6 6 7 7 7 7
1 1 4 5 2 2 3 3 4 4 5 6 5 7 8 5 4 3 6 5 1 4 2 1 2 2 3 3 2 6 6 5 1 4 8 4 8 18 27 26 26 30 31 31 30 28 27 26 26 25 21 20 19 18 20 20 18 17 17 16 16 16 16 16 16 15 14 14 13 13 13 11 11 12 11 10 10 9 9 10 9 7 8 8 10 11 8 7 7 5 6 5 6 6 6 6 6
4 1 1 3 1 3 2 3 4 4 4 4 4 7 9 4 3 3 5 2 2 3 0 2 1 2 5 2 2 6 5 11 6 4 9 8 9 18 26 27 27 30 30 30 30 28 27 26 27 25 22 20 20 19 20 20 18 17 17 17 16 17 16 16 16 16 16 16 15 15 14 13 13 13 12 11 10 10 11 12 11 9 10 11 11 10 9 7 6 5 5 5 5 5 5 5 5
5 3 0 2 1 2 1 4 4 4 5 5 5 7 8 4 3 3 5 4 3 2 2 4 3 3 4 3 4 6 4 11 11 6 9 10 11 18 25 28 28 30 31 30 29 28 27 26 26 26 23 21 20 20 20 19 18 18 19 18 18 18 17 18 17 17 17 16 16 15 15 15 15 14 13 12 11 11 12 12 13 13 13 12 11 10 9 7 5 5 5 5 5 4 3 3 2
4 4 2 1 2 2 4 3 3 3 6 5 6 10 10 5 3 4 5 5 4 1 4 3 3 4 4 3 6 5 3 9 13 10 9 11 12 18 25 28 28 29 30 30 29 28 27 26 26 26 25 21 20 21 20 20 20 20 19 19 19 19 19 19 18 17 18 17 17 16 16 16 15 14 13 13 13 13 12 12 13 13 13 12 12 10 9 7 6 6 5 4 3 3 2 2 2
2 4 1 2 1 2 4 4 4 5 6 5 7 9 8 4 3 3 4 5 4 2 3 2 1 5 2 4 5 3 4 6 12 12 10 12 13 18 24 28 28 27 29 29 28 27 27 26 26 27 26 23 21 21 20 20 20 19 20 20 20 19 20 19 19 18 18 18 17 17 17 16 15 14 14 14 14 13 13 13 13 13 13 13 11 10 8 8 7 6 5 5 4 4 4 4 4
2 3 3 2 2 3 4 4 5 7 7 6 6 5 2 4 4 3 4 4 2 2 5 5 2 3 1 4 4 4 5 7 11 12 11 13 15 19 23 27 28 27 27 27 27 27 26 27 27 27 27 25 23 22 21 20 20 20 20 20 20 19 19 19 18 18 17 17 17 17 16 15 14 14 14 14 14 13 13 13 14 14 13 12 11 10 9 9 8 7 6 6 5 5 4 4 3
2 2 4 1 3 2 2 3 5 6 7 4 5 4 1 5 4 5 5 4 2 2 7 7 2 2 2 5 4 6 5 6 10 12 11 13 16 21 24 26 27 27 27 26 26 27 27 27 28 28 28 26 25 23 22 22 21 21 21 20 20 19 19 19 18 18 17 17 16 16 16 14 14 15 14 14 14 14 14 14 13 13 13 12 12 11 10 10 9 8 7 6 5 4 4 3 3
3 3 4 1 0 1 2 3 4 2 5 6 4 4 1 2 4 5 5 3 6 4 4 5 5 2 3 3 5 5 3 3 10 14 12 14 19 22 24 26 27 27 27 27 27 27 28 28 29 29 28 28 27 25 24 24 23 23 23 21 21 21 21 20 19 18 18 17 16 16 16 15 15 16 15 14 15 14 14 14 13 13 13 13 12 11 10 9 8 7 6 5 4 3 3 2 2
3 2 4 1 1 2 3 3 2 2 5 6 3 2 2 4 4 4 6 5 8 5 2 2 6 2 3 4 5 5 4 3 11 14 14 17 20 21 23 25 26 27 28 28 28 28 29 29 29 29 29 29 28 27 27 27 25 25 24 23 23 23 23 21 20 19 19 18 17 18 17 17 17 17 16 16 16 15 15 15 14 14 13 13 12 11 9 8 7 6 5 3 2 2 1 1 2
3 4 4 0 2 2 3 4 2 2 6 6 3 1 3 6 3 3 5 5 5 3 2 3 5 2 4 6 7 4 4 3 13 14 16 18 19 21 21 23 25 27 28 29 30 30 30 30 30 30 30 29 28 28 28 28 27 27 25 24 24 25 24 23 21 21 21 19 19 20 19 19 19 18 18 18 17 16 16 16 15 15 14 13 12 11 10 9 7 6 5 3 2 1 1 1 2
3 4 3 1 2 3 4 4 4 3 6 6 5 1 1 7 2 2 1 3 5 4 2 5 3 3 6 6 5 3 2 7 14 15 17 18 18 19 19 22 24 26 30 31 32 32 31 31 31 31 31 30 29 29 29 29 28 28 27 26 26 26 25 24 22 22 22 22 22 22 21 21 21 20 19 18 18 17 17 17 16 16 15 14 13 12 10 9 8 6 5 4 3 3 2 2 3
2 3 2 3 4 4 6 8 7 4 4 6 4 0 2 7 6 2 1 1 5 5 4 5 7 8 10 9 6 4 4 11 16 19 19 18 18 18 20 24 26 29 31 33 34 34 34 33 32 32 32 31 30 30 30 30 29 29 29 28 28 27 25 24 24 24 24 24 24 23 22 21 21 20 19 19 18 18 18 18 17 17 15 14 13 11 10 9 8 7 6 5 4 3 3 3 3
2 4 2 4 6 6 6 8 6 4 4 5 6 3 3 7 4 1 3 7 6 7 7 4 8 12 13 13 9 7 10 15 19 21 21 21 22 22 23 25 28 30 32 36 38 37 36 35 34 34 33 33 32 31 32 31 31 30 30 29 28 27 26 26 26 26 25 25 24 23 22 21 20 19 19 19 19 19 19 18 17 16 15 14 12 11 10 9 8 7 6 5 5 4 3 3 3
2 3 2 6 7 6 5 7 8 8 4 5 8 4 2 6 3 0 3 8 8 10 10 4 9 13 13 10 9 10 13 16 20 21 21 23 25 26 26 27 30 34 38 39 39 38 38 38 37 36 35 34 33 33 33 33 32 32 31 30 30 29 28 28 27 27 26 26 25 23 22 21 20 20 20 20 20 19 19 18 17 15 14 13 12 11 10 10 9 8 7 6 5 4 3 3 3
1 4 5 7 4 4 7 9 9 8 3 4 6 5 6 6 2 2 2 5 10 12 10 9 12 13 12 10 8 11 12 14 18 20 21 22 25 27 29 31 34 37 37 36 38 41 41 41 39 38 37 36 35 35 35 35 34 34 33 32 31 30 30 29 28 28 27 26 25 24 23 22 22 22 22 22 21 20 19 18 16 15 14 14 13 12 11 11 10 8 7 6 5 4 4 3 3
1 5 7 6 4 4 7 8 8 6 3 4 4 6 7 3 1 4 5 4 10 12 7 10 13 11 11 8 7 8 9 11 14 18 20 22 26 28 29 31 32 32 31 34 39 42 42 42 41 39 38 38 37 37 37 36 36 36 35 34 33 32 31 30 29 29 28 27 26 25 25 25 24 24 24 23 22 20 19 18 17 16 16 15 15 14 13 12 10 9 8 7 6 5 4 4 3
3 5 5 6 6 7 6 4 5 5 4 4 4 5 3 3 7 4 9 11 16 17 10 9 10 10 9 4 6 8 10 12 13 19 24 25 27 30 31 32 34 33 33 37 40 40 41 43 43 42 41 40 39 38 38 37 37 37 36 35 34 34 33 32 31 30 29 28 27 27 27 27 27 26 25 24 23 21 20 19 19 18 18 17 16 15 14 12 11 10 8 7 6 6 5 4 4
4 5 4 7 7 9 8 3 4 4 5 8 3 6 7 7 7 1 7 13 18 21 13 8 9 8 7 5 7 10 12 13 17 25 29 30 33 35 35 36 36 33 33 37 38 39 42 44 44 44 43 43 41 40 39 39 39 39 38 37 36 35 34 33 32 31 30 29 28 29 29 29 28 27 26 25 24 23 22 21 21 20 19 19 18 16 14 13 12 10 9 8 7 6 6 5 5
5 7 5 4 4 8 9 5 5 6 7 6 3 9 15 11 3 5 12 16 19 19 14 10 9 8 8 10 11 10 11 13 17 24 26 30 32 31 32 34 30 29 35 39 37 40 43 44 45 46 46 45 43 42 41 41 41 40 40 39 38 36 35 34 32 31 31 30 30 30 30 30 29 28 27 26 25 24 23 23 22 22 21 20 18 17 15 13 12 11 10 9 8 7 6 5 5
7 8 6 4 7 8 7 6 7 7 6 4 4 13 17 7 2 10 17 20 19 14 13 11 7 9 10 11 12 11 11 13 16 20 22 27 27 26 31 32 29 34 41 39 38 42 42 41 44 47 48 46 45 44 44 44 43 43 43 41 40 38 37 35 33 32 32 31 31 31 31 30 29 28 28 27 26 25 25 25 24 23 22 21 19 17 16 14 12 11 10 9 8 7 6 5 5
4 4 7 7 9 9 4 6 8 5 5 7 8 15 15 3 2 9 16 14 10 8 11 10 5 9 11 9 11 10 11 15 19 17 16 20 22 27 32 29 33 41 40 37 41 42 40 41 44 46 47 47 46 46 46 46 45 45 45 43 41 40 38 36 34 34 33 33 33 32 32 31 29 29 28 28 27 26 26 26 25 24 23 21 19 17 16 14 12 11 9 8 8 7 6 5 4
0 1 8 9 8 10 5 6 8 4 4 8 12 12 12 4 2 13 19 8 2 6 12 11 7 10 11 11 10 8 9 17 19 13 13 18 23 30 32 32 40 42 39 42 43 39 40 43 44 45 47 47 48 49 48 48 48 47 46 45 43 41 39 37 36 35 35 34 33 33 33 32 31 29 29 29 28 28 28 27 27 25 24 22 20 18 16 15 14 12 11 10 9 8 7 6 4
2 3 6 11 8 11 8 5 5 6 4 6 9 5 9 6 9 19 19 6 1 6 12 13 11 11 11 11 9 7 10 14 13 13 21 27 30 32 33 39 43 41 42 44 40 38 43 44 44 44 45 47 49 50 50 49 49 48 48 47 45 43 41 39 38 37 36 35 35 35 34 33 32 31 30 30 29 29 29 28 28 26 24 22 21 19 18 16 15 13 12 11 10 9 7 6 4
4 2 1 8 8 9 6 2 1 3 5 7 7 3 7 10 16 21 13 5 5 7 10 13 11 10 10 10 8 9 10 11 11 19 28 32 34 33 36 41 41 41 41 38 37 42 45 43 43 44 45 48 49 50 50 50 50 49 49 48 47 45 43 41 40 38 37 37 36 36 36 35 34 33 32 31 31 30 30 29 29 27 25 24 22 21 19 17 15 14 13 12 11 9 7 6 4
4 2 1 3 3 7 4 3 2 2 3 7 6 5 9 11 16 20 10 3 6 8 11 12 11 10 9 10 9 10 11 11 16 25 30 32 35 35 38 40 37 39 38 36 41 44 43 42 43 44 46 48 49 50 51 51 51 50 50 49 48 47 45 43 42 40 39 38 38 37 37 36 35 34 34 33 32 32 31 31 30 28 27 25 23 21 20 18 16 15 14 12 11 10 8 6 5
2 2 4 2 3 6 9 4 5 6 4 3 6 5 9 11 14 17 10 3 5 8 11 10 12 12 9 10 9 11 13 12 18 26 31 33 35 37 39 38 36 37 38 40 42 40 40 42 43 44 46 47 49 51 51 50 49 48 49 49 49 48 46 45 44 42 41 40 39 38 38 37 36 36 35 35 34 33 32 31 30 29 28 26 24 22 21 19 18 16 15 13 11 10 8 6 5
3 2 5 5 5 5 8 8 5 7 2 1 7 6 7 9 11 12 9 7 6 7 10 11 13 14 11 10 9 11 14 15 16 20 28 33 36 39 38 37 36 36 37 39 39 38 40 41 42 44 45 47 49 49 48 47 46 47 47 47 47 47 46 46 44 43 42 41 40 39 39 38 37 37 36 36 35 34 33 31 31 30 29 27 25 23 22 20 19 17 15 14 12 10 8 6 5
4 2 5 5 6 6 6 7 6 1 4 5 7 8 12 13 10 12 11 11 9 10 13 13 14 15 13 11 10 12 14 16 17 19 25 29 34 38 36 36 35 34 36 36 37 39 40 40 42 44 45 45 46 46 46 45 44 44 43 44 45 45 45 45 44 44 43 42 41 40 40 39 39 38 37 37 36 35 33 31 31 31 30 27 26 24 23 21 20 18 16 15 13 10 9 7 5
7 6 5 4 4 6 7 8 5 5 6 6 5 10 16 16 13 14 15 12 12 17 17 14 15 16 15 13 13 15 15 16 19 23 27 24 27 32 32 33 33 33 35 35 36 38 38 38 40 42 44 44 44 44 43 42 40 40 40 40 41 42 43 44 44 44 44 43 42 41 41 41 41 40 39 38 37 36 34 32 32 32 31 28 27 26 24 23 22 20 17 15 14 12 10 7 6
8 6 5 7 7 7 8 10 7 6 11 9 11 17 17 16 15 13 15 12 11 16 17 15 14 13 13 14 15 15 16 19 19 24 27 23 23 26 27 29 31 32 34 34 35 36 38 38 39 42 43 43 41 40 39 39 38 38 37 37 39 41 43 44 45 46 45 45 44 43 43 42 42 42 41 40 38 37 35 32 32 33 32 30 29 28 27 25 23 21 19 17 15 13 11 8 6
4 4 5 8 9 9 9 11 10 4 6 8 12 20 19 15 16 13 14 13 11 15 17 18 16 13 13 15 18 19 18 19 16 19 24 23 22 23 24 26 27 28 30 32 33 36 39 39 40 41 41 41 41 41 41 41 42 40 39 40 44 44 44 44 46 47 47 47 46 45 45 44 43 43 42 40 39 37 35 33 33 34 33 32 30 29 27 25 23 22 20 18 16 14 11 8 6
6 5 7 8 7 12 12 12 13 4 3 6 9 18 20 14 15 14 13 14 17 17 15 17 20 17 14 15 21 21 16 15 13 15 18 18 19 21 22 23 24 25 28 31 34 37 38 39 41 41 40 41 44 45 45 45 47 46 44 46 46 44 44 46 47 49 49 47 47 46 45 45 44 44 42 40 39 38 36 35 35 35 35 33 31 29 27 26 25 24 22 21 17 14 11 9 7
7 4 6 7 5 10 12 10 11 4 2 6 8 16 17 12 15 17 17 17 17 15 11 14 18 19 18 17 16 15 15 17 15 13 13 12 15 18 18 20 23 25 27 30 33 35 36 38 40 39 40 42 45 45 46 46 46 44 41 40 39 37 39 43 43 44 46 45 45 45 45 45 44 43 42 41 40 39 38 37 36 36 36 35 34 31 29 28 28 26 24 21 18 16 12 10 9
6 5 5 8 6 7 8 5 5 4 3 6 10 15 14 11 15 16 17 15 12 14 14 14 16 20 22 16 10 11 16 19 17 13 12 12 12 12 13 17 20 22 25 27 30 33 35 38 40 40 40 42 44 44 44 42 39 37 34 31 31 32 33 36 36 37 41 42 42 43 44 44 44 43 42 41 40 40 39 38 37 37 38 37 36 34 33 32 30 28 26 22 19 18 14 10 10
6 6 6 10 12 10 10 7 6 6 5 6 8 13 10 6 9 9 7 6 7 11 14 16 17 18 16 13 12 16 15 13 15 15 16 14 9 6 10 14 16 20 25 28 30 33 36 39 40 41 41 42 43 43 43 39 35 34 31 25 25 26 26 29 32 34 36 38 40 43 44 44 44 43 42 42 42 41 40 39 38 38 39 38 38 36 35 34 32 29 27 24 21 19 16 13 12
5 6 12 16 15 12 12 9 8 6 4 4 5 7 8 1 3 6 5 4 7 9 12 17 15 10 9 11 15 16 10 7 10 13 15 13 8 5 7 11 15 21 27 29 31 34 36 37 38 39 39 40 41 42 42 41 38 37 35 31 29 29 27 31 38 39 39 42 45 47 46 46 45 44 44 44 43 42 41 41 40 39 40 40 39 37 36 34 32 30 27 25 22 19 18 16 16
7 6 11 14 12 10 10 8 4 2 4 3 4 1 8 4 3 7 7 6 11 12 13 14 10 8 9 10 12 12 11 8 8 10 12 11 8 6 6 12 18 23 26 27 28 31 32 32 33 36 37 38 39 40 42 42 41 40 41 39 37 35 34 37 42 42 44 47 47 47 48 47 46 46 46 44 43 43 42 41 41 40 40 40 40 38 37 35 33 30 28 26 23 20 20 19 19
7 5 6 8 8 7 5 3 3 4 3 3 2 4 7 10 5 7 8 8 12 15 14 11 9 9 11 11 11 11 11 9 8 10 11 10 7 6 9 14 17 20 21 20 22 26 27 27 29 32 35 36 37 39 42 44 43 42 42 40 37 38 36 35 36 39 42 43 42 43 45 46 46 46 45 44 43 43 42 42 41 41 40 40 40 39 37 35 33 31 29 26 24 22 21 20 21
6 3 5 5 4 4 4 4 4 2 4 4 3 5 3 11 6 3 2 6 10 14 13 11 10 8 9 11 11 10 9 8 7 9 10 9 7 8 12 14 13 14 15 15 17 20 22 23 25 28 31 33 34 37 40 43 43 42 42 39 36 35 32 29 31 34 36 36 37 38 40 42 44 44 44 44 43 42 42 42 42 41 41 40 40 39 38 36 34 32 30 29 26 24 22 19 20
4 4 5 4 3 2 3 3 2 2 4 5 4 4 2 11 7 3 2 3 7 10 9 9 9 8 9 9 10 10 9 7 7 7 9 9 8 12 14 13 12 10 9 9 11 13 17 20 22 25 28 29 31 35 38 40 40 39 39 39 36 32 29 27 27 30 32 34 35 36 37 39 41 42 43 43 43 43 43 42 42 41 41 40 40 40 39 37 35 33 31 29 28 26 24 21 20
1 5 4 5 4 4 3 1 3 3 6 5 7 9 5 7 5 3 3 4 5 4 7 9 8 9 10 8 9 11 9 8 7 6 8 8 8 10 13 13 12 10 6 4 6 9 13 17 21 23 26 27 29 32 35 37 37 37 38 38 37 34 31 30 29 31 32 33 34 35 37 38 39 41 42 42 43 43 43 43 42 41 41 40 40 40 40 38 36 34 32 30 28 27 26 24 22
4 4 3 4 4 4 4 4 3 2 6 5 7 9 7 6 6 1 3 6 5 6 7 10 10 11 12 10 9 10 8 8 9 8 9 9 8 8 10 12 13 10 6 2 2 6 10 14 18 21 23 25 27 29 32 34 36 37 37 36 37 35 34 34 35 35 36 37 37 36 36 37 38 39 40 42 44 44 44 43 42 42 42 42 42 41 40 38 36 35 33 32 30 28 27 25 24
4 3 3 2 4 3 3 3 1 3 7 5 6 6 4 10 11 5 9 15 14 9 7 9 11 10 11 10 9 8 8 9 8 8 8 8 9 7 7 8 10 9 6 3 1 4 8 12 16 20 23 25 28 30 33 35 37 38 38 37 37 36 36 38 38 38 39 40 39 39 39 39 39 40 42 45 47 47 47 46 46 45 45 44 43 42 41 39 38 36 35 33 32 30 29 27 26
5 5 4 3 1 2 3 3 2 4 6 3 4 5 3 9 9 7 12 15 13 8 6 8 9 9 9 9 8 8 9 9 7 7 7 7 8 7 4 5 6 5 4 2 1 3 6 10 14 18 22 24 28 31 34 37 38 39 38 38 38 37 38 39 39 38 39 40 41 41 43 43 44 45 47 49 50 50 49 49 49 48 47 45 44 43 42 40 39 38 36 35 33 32 30 28 27
5 5 5 4 4 4 4 4 4 6 5 3 1 4 4 6 5 6 10 10 8 7 8 7 6 7 7 7 8 8 9 8 7 7 8 7 7 7 5 4 5 3 2 2 4 5 8 11 14 18 21 23 27 30 34 37 39 39 38 38 38 38 38 38 38 38 39 41 41 42 43 44 45 47 48 48 49 50 50 50 49 48 47 46 45 44 43 41 40 39 37 35 34 32 31 29 27
2 3 4 3 5 4 3 5 6 6 5 4 2 3 5 5 7 11 11 11 10 10 10 8 7 5 4 5 7 7 8 8 8 7 8 8 7 6 5 6 5 4 2 4 6 8 10 13 16 20 22 25 28 30 33 36 38 38 39 40 39 38 37 36 37 37 38 40 41 42 43 44 45 44 45 45 46 47 49 48 48 48 47 47 46 45 43 43 41 40 38 36 35 34 32 30 28
1 3 3 4 4 5 3 6 4 3 6 6 5 7 7 5 10 12 10 10 9 8 8 6 6 3 5 6 7 7 9 8 7 7 7 8 8 8 11 12 9 6 4 5 7 9 12 14 18 21 23 26 28 31 33 34 35 36 38 39 39 39 38 37 37 37 37 38 39 40 41 42 42 42 41 42 43 44 46 47 47 46 46 46 46 45 44 43 42 41 39 38 37 35 33 31 29
5 3 4 2 2 3 2 3 2 3 7 5 6 12 11 6 8 8 9 12 10 6 6 3 4 6 4 4 6 7 8 8 9 10 11 12 12 13 17 19 17 14 11 10 9 9 12 14 17 20 24 26 29 31 33 33 34 35 36 37 38 39 40 40 39 38 37 37 38 40 40 40 40 40 40 40 41 42 44 45 45 45 46 46 45 45 44 43 43 41 40 38 37 36 34 32 30
3 3 1 1 1 2 2 1 1 5 8 5 6 11 10 7 9 10 13 19 15 6 5 7 8 7 4 4 7 8 9 10 12 13 13 13 13 14 19 24 26 24 21 18 16 14 13 14 16 18 21 23 25 27 30 32 34 35 36 37 39 40 40 40 40 38 38 39 40 41 41 41 41 40 41 41 41 42 43 45 45 45 45 45 45 45 44 44 43 42 41 39 38 36 35 34 32
3 1 1 1 2 4 4 2 2 4 8 8 8 9 7 6 7 10 15 20 17 7 4 8 10 7 7 8 9 11 12 12 13 13 13 14 14 18 23 26 28 29 27 25 23 20 19 19 19 19 20 21 22 24 27 29 32 34 35 36 38 40 41 41 40 39 39 40 41 41 41 41 40 40 41 41 42 43 44 44 45 45 45 45 45 44 44 44 43 43 42 41 39 38 37 35 33
2 3 2 2 3 2 3 3 3 5 7 8 9 9 6 4 5 10 16 17 13 6 4 6 8 9 11 11 11 11 11 12 13 12 13 14 15 20 27 30 31 32 33 33 31 28 26 25 24 23 23 22 22 23 24 26 29 30 33 36 38 39 39 40 40 40 41 42 41 41 41 41 40 40 41 41 41 42 43 44 45 45 45 45 46 46 45 45 44 43 42 41 40 39 38 37 35
5 5 5 6 5 3 6 7 6 6 6 6 8 9 6 3 4 8 12 12 9 10 8 6 10 14 14 13 12 11 11 12 12 11 12 13 13 19 26 31 33 34 34 35 35 34 33 32 30 27 25 24 24 24 24 25 27 28 32 35 35 35 37 38 39 40 42 43 43 43 43 42 42 42 41 42 42 42 43 44 44 45 46 46 47 47 47 47 46 45 44 43 42 41 40 38 37
Wind_Direction
258 240 289 315 322 318 1 55 71 323 76 282 272 226 260 236 257 281 269 255 230 241 234 259 145 154 145 176 203 198 189 174 172 154 210 241 264 192 178 179 184 177 179 178 180 183 182 181 182 182 184 186 185 186 188 190 191 193 192 190 189 188 188 187 185 184 184 181 178 175 173 170 168 162 158 159 148 140 144 147 147 149 146 142 141 138 132 140 147 146 146 139 133 119 116 128 143
256 268 335 330 359 19 246 67 94 331 41 312 278 184 259 296 301 247 237 218 208 249 298 280 130 313 343 166 201 209 246 215 195 186 247 266 269 192 179 182 185 177 180 179 180 183 183 182 182 182 184 187 188 189 190 191 191 191 190 189 187 186 186 186 184 183 181 178 175 173 175 171 167 162 161 157 143 140 149 146 143 145 135 131 134 135 133 149 171 174 192 197 182 214 247 250 265
52 320 348 250 20 42 77 41 108 52 52 275 276 229 252 263 232 238 233 221 219 251 302 253 72 304 191 301 271 190 256 267 231 223 285 237 213 188 181 183 182 178 181 181 181 184 184 182 180 181 184 187 190 191 192 193 191 189 187 187 186 185 185 185 183 180 179 176 173 173 173 168 166 166 161 152 150 153 158 153 151 149 136 131 128 134 135 156 188 194 212 226 243 267 274 274 281
36 14 353 212 52 30 67 37 144 132 198 237 271 256 224 210 234 248 249 243 239 252 268 159 191 227 166 241 259 254 255 271 230 199 254 215 195 184 181 181 179 178 182 183 183 185 185 182 179 180 184 188 192 193 191 190 188 187 184 184 184 184 184 183 181 178 176 175 174 175 172 170 172 176 166 158 168 168 166 163 158 151 147 141 134 167 172 171 204 214 220 234 254 263 264 266 270
4 25 5 73 100 27 96 65 111 132 214 192 220 261 231 217 240 261 268 276 259 210 166 122 261 277 165 227 211 250 242 261 249 206 226 229 196 182 180 181 177 179 184 185 185 185 186 185 182 180 183 188 191 192 189 187 185 184 181 180 181 180 183 182 180 178 177 179 181 181 182 182 181 185 178 175 182 176 171 167 167 166 164 151 154 194 189 174 216 226 230 239 249 252 253 257 262
353 44 25 60 98 92 120 216 183 202 227 170 196 257 243 224 231 266 290 292 247 195 181 129 196 336 283 254 205 216 221 249 278 208 224 243 194 184 181 182 178 181 185 186 187 187 187 188 186 183 183 187 190 191 190 188 186 186 182 181 182 181 184 186 184 184 183 186 187 186 191 188 186 196 195 188 185 180 175 173 178 177 166 157 174 196 187 192 222 228 237 244 245 245 245 249 253
35 75 17 62 57 29 121 227 218 235 243 176 195 253 265 250 205 282 319 325 268 199 200 205 156 87 262 280 266 242 223 215 208 217 225 212 191 186 184 183 180 183 186 188 189 189 190 192 191 189 186 187 189 192 194 191 190 190 188 187 189 190 190 191 191 190 189 191 191 191 194 189 191 200 196 188 185 181 185 194 188 164 159 174 192 202 205 215 226 229 234 239 241 239 237 240 242
65 99 4 90 69 6 102 262 249 219 250 226 226 247 269 271 177 302 313 330 273 240 256 268 128 132 268 341 273 256 233 223 231 255 225 213 197 187 188 187 183 184 188 191 192 192 193 194 195 194 190 190 192 194 197 195 195 195 196 195 194 195 194 194 195 195 195 196 196 196 196 194 196 194 188 184 181 184 196 203 194 181 187 197 203 207 211 219 224 224 222 224 230 228 227 231 233
52 46 135 94 144 339 351 286 274 232 254 268 272 259 271 266 194 270 279 277 268 276 264 237 155 190 287 353 260 278 279 226 223 236 219 215 204 191 192 192 189 187 189 193 194 195 195 196 197 198 195 192 195 197 199 198 199 199 199 199 197 197 197 200 201 201 200 198 196 196 196 195 193 187 184 180 180 193 201 201 196 197 201 202 204 206 212 215 211 207 205 207 210 210 213 216 229
39 28 149 94 127 301 309 274 264 253 252 258 273 264 268 257 204 231 242 274 255 268 287 209 155 226 294 314 264 282 271 224 216 223 219 215 205 196 197 197 195 190 191 194 195 197 197 200 200 202 200 195 196 197 198 199 200 200 199 199 199 199 198 201 201 200 198 195 192 191 191 188 185 182 179 181 192 203 202 197 195 196 196 198 200 203 206 199 187 186 186 185 177 168 150 120 99
41 357 112 98 91 255 262 256 269 268 276 294 287 268 262 230 198 230 216 274 252 238 280 128 160 231 278 292 264 256 239 231 214 213 219 217 206 198 199 199 199 196 194 194 195 198 199 201 203 204 202 199 197 197 197 196 198 200 198 198 198 198 196 197 195 194 192 189 189 187 186 184 181 179 180 192 202 202 196 193 190 189 191 192 192 191 185 170 166 167 162 154 142 131 113 101 93
87 341 63 105 189 222 225 248 277 283 299 309 288 288 301 155 157 228 209 248 246 290 255 185 195 176 141 277 262 283 273 249 216 209 219 217 207 198 200 201 200 200 199 198 198 199 200 202 203 204 203 201 199 197 194 195 198 197 197 196 196 195 192 193 192 191 190 187 187 185 185 184 181 183 191 199 198 191 187 185 182 182 181 181 179 173 164 158 157 154 148 141 134 125 112 102 91
119 131 87 145 197 189 225 249 279 306 311 276 248 284 29 132 186 220 188 230 222 318 264 212 165 112 218 254 283 311 301 259 215 206 215 212 205 198 200 202 201 201 201 203 202 202 202 202 204 204 204 202 201 198 194 195 197 192 194 194 193 194 191 193 193 191 190 188 188 188 186 182 184 193 196 193 189 185 181 178 176 173 170 168 165 161 158 155 152 147 142 136 131 124 116 105 95
139 144 113 194 226 100 212 263 288 303 287 258 251 287 315 187 214 193 154 247 248 206 244 210 147 119 253 260 314 302 310 284 205 203 208 203 202 199 201 203 203 203 203 205 206 206 204 204 205 206 207 205 204 201 197 198 197 193 192 193 193 195 194 195 194 192 192 188 189 191 187 182 190 197 195 190 188 185 181 177 171 167 165 162 160 158 155 150 146 142 135 128 122 112 101 86 71
143 134 94 137 332 339 214 234 250 159 255 258 255 307 298 247 173 161 182 210 256 216 196 206 156 178 211 200 264 247 300 287 194 198 198 195 197 199 203 204 205 205 205 207 207 209 207 207 207 207 209 208 207 205 202 202 199 196 194 194 195 195 194 194 194 192 192 190 191 194 193 191 196 197 194 193 191 187 181 176 173 170 166 163 161 156 153 152 150 145 137 127 113 93 55 21 3
121 111 71 71 253 283 220 212 169 153 253 246 259 329 315 279 160 178 223 177 272 263 163 208 181 210 188 189 226 230 316 229 186 193 189 189 194 198 204 205 208 207 207 209 209 211 210 211 210 210 211 211 211 207 206 204 199 196 195 195 195 195 194 193 194 194 195 197 199 201 201 199 198 196 195 195 192 187 182 178 175 172 168 165 163 160 160 160 158 155 153 152 158 179 247 285 294
85 86 81 268 209 213 206 197 187 192 258 269 294 309 249 300 282 217 243 135 259 262 201 235 227 221 207 210 240 273 299 186 181 184 181 186 191 195 205 206 209 210 210 210 211 212 212 214 214 214 213 213 213 210 209 206 201 197 196 196 196 196 195 194 196 198 202 205 206 207 205 203 200 199 197 196 192 187 183 180 176 173 172 170 168 167 167 166 165 166 166 172 181 194 213 236 253
78 94 144 223 198 205 191 190 200 192 258 272 291 170 220 293 298 283 348 284 270 271 257 267 279 257 242 249 266 274 205 182 182 180 178 184 189 195 205 208 209 211 212 211 212 213 213 215 215 216 216 215 214 212 212 209 205 202 200 200 200 200 199 199 201 204 207 209 210 210 207 205 203 201 198 195 191 189 187 183 179 178 176 175 174 173 173 173 172 173 175 179 180 188 203 217 236
124 123 176 230 203 214 198 188 199 204 239 265 283 275 233 263 278 358 286 283 306 293 273 260 273 269 262 254 244 231 193 184 186 183 184 187 191 197 203 208 210 213 213 213 213 213 214 215 216 218 218 217 216 214 213 211 209 206 205 205 205 206 205 205 207 209 211 212 213 210 208 205 203 201 198 195 194 192 191 187 184 183 182 181 181 181 180 179 177 177 175 173 174 179 191 203 221
179 134 213 243 217 232 232 208 209 220 246 293 288 289 245 250 255 74 259 289 301 275 267 248 256 262 262 249 215 204 192 189 192 191 195 197 200 202 204 206 209 214 215 215 215 214 215 216 217 218 219 219 218 216 214 213 211 209 209 209 209 208 208 209 211 211 213 214 214 210 207 204 202 200 198 198 197 196 194 191 189 187 187 185 185 185 182 180 177 174 169 164 167 168 176 193 205
182 155 213 236 199 239 238 217 223 232 239 253 275 326 296 262 207 195 225 307 293 267 249 228 241 249 254 251 207 192 190 196 199 203 206 207 210 209 210 210 213 217 217 217 217 216 217 217 218 218 219 219 219 217 216 214 212 211 210 211 211 210 211 211 212 213 214 215 214 210 206 204 201 200 200 200 199 199 197 194 192 189 188 186 185 185 182 180 175 168 164 158 156 158 166 180 189
177 212 232 232 174 243 238 204 223 218 181 230 271 303 285 278 222 204 180 227 265 266 237 210 229 238 247 247 199 188 196 205 206 211 214 214 216 216 217 218 219 220 218 219 219 219 218 218 219 218 219 218 219 219 218 217 214 213 212 212 212 212 212 212 213 214 214 215 213 210 207 204 202 202 202 201 200 200 198 194 192 190 190 188 186 186 183 178 173 166 160 154 151 153 157 166 172
241 248 255 247 208 235 244 184 206 178 157 223 241 281 297 324 287 215 174 217 248 263 251 217 231 230 241 232 167 189 208 212 213 214 214 215 218 218 219 220 221 220 219 222 221 220 219 219 219 219 219 219 219 219 219 219 217 216 214 213 213 213 213 213 213 214 214 214 212 211 209 206 204 204 203 202 201 199 197 195 193 192 191 192 189 187 186 178 172 166 158 153 149 149 150 156 159
241 258 264 255 225 230 248 234 223 199 223 240 255 314 291 260 281 264 192 229 248 262 262 243 250 244 242 232 200 209 214 216 222 222 219 219 222 222 222 222 222 221 222 224 222 221 222 221 219 219 220 219 218 219 219 219 218 217 216 215 215 215 215 214 214 214 213 213 212 212 211 208 207 206 205 203 202 199 197 196 195 195 193 195 193 188 188 180 172 163 156 152 148 148 146 148 150
223 240 252 261 246 243 259 266 255 252 250 250 276 286 269 243 241 286 253 249 252 260 272 263 261 265 249 241 236 227 224 227 231 231 228 227 229 229 228 227 224 223 226 227 223 223 225 222 220 219 220 219 219 219 219 219 219 218 217 217 217 216 217 216 215 214 213 212 212 213 212 210 209 209 208 205 203 200 198 198 197 197 196 197 195 189 185 179 169 160 155 150 147 144 140 143 146
218 227 254 275 277 273 281 278 248 248 246 195 219 263 269 254 193 269 256 250 259 265 276 273 266 266 251 242 243 232 229 233 234 234 233 233 233 233 233 229 224 226 229 228 225 226 225 222 221 221 220 219 219 219 219 219 219 219 219 218 217 217 218 218 216 215 214 214 213 213 213 212 212 212 211 208 206 203 200 200 199 198 198 198 196 189 181 174 167 159 153 148 144 143 143 146 146
202 222 272 263 271 280 264 263 250 242 252 185 194 254 268 289 107 266 252 238 263 281 273 273 262 261 258 248 244 236 232 235 236 233 235 236 229 230 233 227 224 230 230 228 228 227 224 223 224 222 221 219 219 219 220 220 220 220 220 219 219 218 219 218 217 216 215 215 214 214 214 214 214 215 215 213 209 206 203 201 200 200 200 198 194 187 179 172 166 160 153 149 147 149 154 155 154
166 326 300 278 288 293 232 241 257 219 256 196 187 250 278 324 157 247 258 247 240 271 275 279 267 263 265 259 250 238 236 243 241 228 228 232 226 228 228 225 227 229 228 229 229 226 224 225 225 223 221 219 219 220 220 220 220 220 220 219 219 219 219 219 217 217 216 215 215 214 215 214 215 216 216 216 213 209 206 203 202 202 202 199 192 186 179 174 168 164 158 156 157 160 167 166 165
313 49 315 292 320 306 256 242 253 179 220 189 165 265 287 264 236 245 259 269 227 259 275 280 272 268 268 264 260 246 243 250 242 225 231 234 233 231 229 231 230 228 229 231 228 225 228 227 224 222 221 219 219 220 220 220 221 220 220 220 220 219 219 220 218 218 217 216 215 215 215 215 215 216 217 218 216 213 208 206 204 204 203 198 192 185 181 177 171 168 165 163 165 168 173 171 174
294 65 304 297 329 307 267 152 43 156 198 170 154 271 264 245 254 259 264 263 256 262 267 271 271 270 272 270 267 259 252 248 237 234 237 238 239 235 234 238 234 231 231 228 226 228 229 225 222 221 220 220 220 219 219 219 220 220 220 220 220 220 219 220 219 219 218 217 216 215 216 216 216 217 217 218 217 214 211 208 207 206 203 198 193 186 182 179 173 171 171 170 170 171 175 174 180
301 299 222 311 298 286 284 137 100 301 233 158 164 251 256 252 260 266 278 259 240 256 263 268 270 265 269 273 271 269 260 243 240 244 244 244 244 241 240 241 237 233 230 226 228 230 228 223 221 221 220 220 219 219 219 219 219 219 220 220 220 220 220 220 219 219 218 217 217 216 216 217 217 217 217 218 217 216 212 210 208 206 203 199 193 187 183 181 177 175 175 175 174 174 176 177 182
353 288 285 294 212 270 299 268 199 241 279 126 172 231 261 259 260 267 288 295 233 251 263 266 271 268 263 268 270 272 272 258 246 246 248 247 247 245 243 243 239 234 231 229 230 228 226 224 222 220 219 219 219 219 219 218 218 218 219 220 220 220 219 219 220 219 219 218 218 217 217 217 217 217 217 218 218 217 214 212 210 206 204 200 193 189 186 183 181 179 178 178 179 177 178 181 183
335 214 256 264 240 275 308 295 236 210 226 206 216 236 269 260 262 273 290 291 253 248 266 267 271 274 269 266 266 267 273 272 262 250 246 245 247 248 246 245 242 239 237 233 229 226 224 223 220 220 220 220 219 217 217 216 216 217 218 219 219 219 219 219 219 219 219 218 218 218 218 218 218 218 218 219 219 218 216 213 210 207 205 200 194 191 188 185 184 183 182 179 181 184 182 184 184
285 235 240 250 250 270 299 295 299 178 179 220 237 242 256 262 274 286 287 289 286 270 268 268 270 275 274 270 265 262 264 268 271 263 251 244 247 251 249 249 247 244 243 237 231 229 226 222 220 220 220 220 218 216 215 215 215 215 217 218 219 219 219 219 219 219 219 218 218 218 219 219 219 219 219 219 219 218 216 214 210 207 206 201 196 194 190 187 185 185 186 182 181 186 186 185 185
238 241 256 284 263 252 263 266 304 334 254 240 277 259 257 268 274 277 277 277 280 276 273 270 268 270 273 273 267 263 263 263 263 264 263 255 251 254 253 253 251 247 245 240 233 229 226 223 221 220 219 218 216 214 212 211 211 212 214 216 218 219 218 218 218 219 219 219 219 220 220 220 220 220 220 220 218 217 215 213 211 208 207 203 198 196 193 189 186 185 188 187 182 183 186 184 177
237 243 257 282 280 252 247 256 263 285 278 272 277 271 269 274 273 271 275 269 261 270 277 275 268 267 270 271 268 265 262 260 259 265 272 270 261 258 256 254 252 248 244 238 232 226 223 221 219 218 217 214 212 209 206 204 205 207 209 211 214 216 217 216 217 219 219 220 220 220 220 220 221 220 220 219 218 216 214 212 210 208 208 205 201 199 196 192 189 186 186 188 186 180 179 178 168
297 277 264 263 273 272 262 270 265 240 272 260 254 272 277 275 277 272 271 275 264 260 268 273 274 270 266 267 269 266 260 261 270 277 276 271 266 261 256 253 248 243 239 233 228 223 221 219 216 215 213 210 206 203 202 200 200 201 202 206 211 213 213 213 215 217 219 220 220 220 220 220 220 220 219 219 217 215 214 212 210 209 209 207 204 202 198 195 191 189 186 185 186 179 171 170 163
288 264 275 271 260 270 267 267 273 252 243 254 245 272 277 274 279 275 266 267 262 255 255 269 277 274 266 260 263 267 269 274 280 278 274 271 267 260 253 248 239 234 233 229 225 223 220 217 216 214 210 206 206 205 203 202 203 202 202 206 209 209 209 209 212 215 216 218 219 218 218 219 219 219 219 218 216 215 214 213 211 209 210 208 206 204 201 197 193 190 188 185 182 177 171 164 162
262 253 280 281 254 274 272 254 271 275 221 272 275 273 276 273 269 264 257 253 257 264 252 252 268 274 267 257 260 275 285 283 278 278 284 281 270 262 252 243 238 235 234 231 227 223 218 216 215 213 208 206 206 206 204 204 206 205 205 207 207 206 207 209 211 213 214 216 216 216 217 217 218 218 219 218 217 216 216 215 212 210 211 209 206 203 201 200 196 192 191 190 183 173 166 161 164
235 223 259 274 258 269 272 251 295 318 236 270 286 283 281 265 257 258 258 258 262 269 259 246 250 256 261 269 280 277 274 279 288 295 293 285 275 268 255 246 244 240 235 232 226 220 216 216 215 211 209 208 206 205 205 205 205 204 206 209 206 205 208 209 210 213 215 215 215 215 216 216 217 218 219 219 218 217 218 217 214 211 211 211 208 205 202 201 198 195 192 193 189 176 164 159 167
223 203 222 256 256 248 252 271 331 336 284 284 300 297 289 241 238 256 274 286 265 255 258 253 246 249 266 291 284 265 263 276 290 293 288 287 295 293 265 254 249 242 237 233 228 223 220 218 216 212 209 207 205 204 202 201 200 198 198 200 199 201 204 204 206 211 212 212 214 214 215 216 217 219 220 220 219 218 218 217 215 213 212 212 210 207 204 202 200 198 194 193 194 188 175 164 165
265 213 216 237 253 255 259 286 338 353 311 327 5 323 299 177 174 258 295 309 268 248 248 252 259 268 276 278 272 273 280 265 263 275 282 291 316 332 278 252 245 242 242 241 235 229 225 221 217 212 208 206 204 202 199 197 196 194 191 189 188 190 193 199 204 206 205 209 213 214 215 215 216 217 219 219 219 218 218 217 216 214 214 213 212 209 207 205 202 200 198 196 196 193 184 172 167
283 238 213 228 247 259 264 283 320 309 266 301 60 12 285 283 176 233 246 247 260 257 251 258 277 285 269 262 269 281 289 279 270 278 284 291 311 325 280 251 246 248 251 250 241 234 229 223 217 211 208 206 203 200 197 195 194 194 194 195 194 194 196 203 206 206 206 210 212 212 213 213 214 215 216 217 217 218 218 217 216 215 215 214 213 211 209 208 206 202 200 198 197 194 188 180 173
265 245 193 212 236 247 239 232 230 242 285 299 152 155 271 284 233 207 220 226 256 266 266 273 272 267 272 273 272 276 284 295 299 289 286 287 290 285 271 265 260 261 267 261 246 238 232 226 220 214 210 207 203 200 197 196 195 195 197 199 202 203 204 207 206 205 208 209 208 209 210 210 211 213 214 215 216 217 217 217 217 216 216 216 215 213 211 209 208 204 200 198 197 196 194 189 181
250 204 143 174 210 217 167 158 205 277 342 305 233 155 248 283 259 161 198 225 249 268 276 283 279 274 277 278 283 288 285 280 270 273 284 289 288 283 285 290 289 282 281 270 252 243 233 227 223 215 211 208 204 200 198 198 198 197 198 200 204 208 210 211 207 204 206 206 206 207 208 208 208 210 212 214 215 216 217 217 217 216 216 216 216 216 213 211 210 207 202 199 198 196 195 195 191
232 131 97 71 74 75 105 148 149 38 325 266 210 157 230 284 274 122 84 234 246 274 285 282 284 283 274 279 296 300 293 278 258 259 276 284 290 300 307 315 319 311 296 276 254 241 231 223 218 213 211 208 205 202 200 200 200 200 200 201 204 207 208 209 207 203 204 204 204 205 206 207 207 207 210 212 214 215 216 217 217 216 216 216 216 216 215 213 212 210 206 203 201 197 194 195 196
74 83 49 17 25 38 53 74 92 67 290 251 189 184 199 287 295 142 176 213 205 265 298 293 296 299 294 301 305 302 305 306 309 308 298 293 292 312 333 342 343 342 329 284 238 225 221 216 211 209 208 207 206 204 202 202 202 203 204 204 205 205 203 203 200 199 201 201 201 202 204 206 207 207 208 210 212 214 215 216 217 217 217 217 217 216 216 215 213 211 209 206 203 201 199 196 195
63 68 46 3 332 9 29 356 55 131 263 253 194 185 177 241 269 213 261 275 241 232 265 281 289 298 303 311 308 306 314 321 330 330 320 320 320 338 357 354 352 356 352 329 217 205 208 208 206 204 203 204 205 204 203 204 204 206 208 208 208 207 204 203 200 199 199 199 200 201 202 204 205 206 207 208 210 212 213 214 215 216 217 217 217 216 216 215 213 211 210 209 205 203 202 199 194
105 121 93 17 316 342 359 315 82 191 252 248 195 180 188 245 261 283 288 286 278 257 236 251 266 279 292 301 304 312 321 323 324 322 329 334 325 337 0 348 351 1 359 351 255 200 199 203 203 202 201 202 203 204 205 205 207 209 211 211 211 210 208 207 206 203 202 200 200 199 199 201 202 203 206 209 210 211 211 213 214 215 216 216 216 216 215 214 214 212 211 210 207 205 203 202 200
148 155 150 141 186 263 268 260 269 265 270 267 189 178 234 270 269 261 258 267 281 284 243 235 249 265 280 291 302 314 310 309 319 323 333 332 312 318 336 335 351 5 357 334 238 204 198 203 205 205 206 206 205 205 205 206 209 211 212 213 213 212 212 211 209 207 205 203 201 201 202 202 203 205 208 211 212 211 211 213 214 215 216 216 215 215 214 214 214 214 213 211 209 207 206 204 204
175 163 148 157 176 212 240 235 258 273 274 288 194 174 216 259 268 242 238 257 285 285 262 257 260 267 282 296 308 316 302 309 341 336 330 328 305 297 308 339 1 4 333 256 211 195 198 204 208 209 209 209 208 208 207 208 210 211 212 215 216 215 216 215 214 212 210 207 205 205 206 206 208 210 212 213 212 211 211 212 213 214 215 215 215 214 214 213 213 214 214 213 211 209 208 206 205
222 135 117 204 193 181 244 245 242 266 285 274 246 217 220 244 287 282 271 274 276 274 274 270 256 267 324 325 314 322 315 325 346 332 323 323 304 297 331 0 5 352 300 243 222 206 204 206 209 213 213 213 213 212 212 212 212 212 213 215 216 217 218 218 217 216 214 212 210 209 210 211 212 213 213 212 211 211 211 211 212 213 214 214 214 214 213 213 212 213 213 213 212 211 209 208 206
165 136 180 227 170 140 244 268 254 270 278 258 241 259 269 285 288 286 293 295 290 301 296 246 229 278 0 339 318 328 324 323 325 314 317 328 337 355 0 360 348 324 292 256 240 226 221 215 213 214 215 216 216 216 216 216 215 215 216 216 217 217 219 220 220 219 218 217 215 214 214 214 214 214 213 212 212 212 211 211 211 212 213 213 213 213 213 213 212 212 213 213 212 211 210 210 208
139 187 215 218 99 111 218 267 281 249 256 247 227 252 272 286 279 289 313 305 298 317 320 300 286 303 330 314 299 307 310 316 329 336 345 353 1 5 360 356 348 333 318 302 286 262 245 234 227 223 220 220 221 220 219 219 218 219 220 220 219 219 220 221 222 221 220 219 218 218 216 216 215 214 214 214 213 212 211 211 211 211 212 212 213 212 212 212 212 212 213 213 213 212 210 210 210
149 211 236 88 210 253 248 217 218 242 256 257 225 240 254 249 260 284 292 285 284 290 306 312 300 292 318 320 304 318 334 345 355 358 360 1 1 2 2 0 357 352 344 334 325 308 286 269 256 246 239 235 232 229 226 224 222 222 223 223 223 223 222 223 223 223 222 221 221 220 218 218 218 216 216 214 213 212 211 210 210 211 211 211 211 212 211 211 211 211 212 212 213 212 211 210 210
69 119 333 42 191 229 239 202 183 246 263 271 253 244 241 224 243 266 269 275 285 290 274 286 292 311 349 351 343 354 3 6 7 6 4 4 5 7 10 10 8 6 4 359 352 336 320 305 288 274 264 256 247 241 236 233 230 227 227 227 226 226 225 224 224 223 223 224 224 223 221 220 219 217 216 214 213 212 210 209 210 210 210 210 210 210 210 210 210 211 211 211 211 211 211 211 209
147 173 225 221 205 247 266 233 214 249 262 268 264 254 238 220 242 253 259 271 290 305 268 278 317 353 6 15 21 18 17 16 12 9 7 5 6 8 11 13 13 13 12 12 9 360 348 334 317 301 285 274 263 256 250 247 244 240 236 233 231 229 228 227 226 224 224 225 225 225 224 222 221 219 217 215 213 212 211 210 209 209 209 209 209 209 209 209 209 210 210 210 211 210 210 210 209
187 192 200 215 222 249 271 256 226 227 245 249 259 263 249 238 259 258 266 284 323 4 8 4 19 20 16 23 31 27 24 20 13 10 9 7 6 7 9 11 12 11 9 9 10 9 5 357 347 331 311 296 284 272 264 259 257 254 250 246 242 238 234 231 228 227 226 225 225 225 225 223 221 221 219 216 214 213 212 210 209 209 209 209 209 209 208 208 208 208 208 209 210 209 208 208 208